"read_dt","SO2 (ppb)","flags","PMT voltage (V)","lamp voltage (V)","lamp intensity (Hz)","internal temp (C)","react chamber temp (C)","sample flow (l/min)","pres (mmHg)","SO2 bkg (ppb)","SO2 coefficient"
2014-03-29 00:00:00,4560E-2,5C000491,-0725,1370,6751,012.1,044.9,0.188,755.7,01.16,0.508
2014-03-29 00:01:00,4570E-2,5C000491,-0725,1371,6698,012.1,044.9,0.188,755.7,01.16,0.508
2014-03-29 00:02:00,4589E-2,5C000491,-0725,1369,6765,012.1,044.9,0.188,755.9,01.16,0.508
2014-03-29 00:03:00,4557E-2,5C000491,-0725,1369,6749,012.2,044.9,0.188,755.7,01.16,0.508
2014-03-29 00:04:00,4622E-2,5C000491,-0725,1369,6788,012.1,044.9,0.188,755.7,01.16,0.508
2014-03-29 00:05:00,4560E-2,5C000491,-0725,1369,6818,012.1,044.9,0.188,755.8,01.16,0.508
2014-03-29 00:06:00,4603E-2,5C000491,-0725,1369,6782,012.1,044.9,0.188,755.8,01.16,0.508
2014-03-29 00:07:00,4610E-2,5C000491,-0725,1369,6792,012.2,044.9,0.188,755.8,01.16,0.508
2014-03-29 00:08:00,4637E-2,5C000491,-0725,1370,6792,012.2,044.9,0.188,755.8,01.16,0.508
2014-03-29 00:09:00,4601E-2,5C000491,-0725,1370,6715,012.2,044.9,0.188,755.7,01.16,0.508
2014-03-29 00:10:00,4628E-2,5C000491,-0725,1371,6745,012.2,044.9,0.188,755.8,01.16,0.508
2014-03-29 00:11:00,4597E-2,5C000491,-0725,1371,6702,012.1,044.9,0.188,755.8,01.16,0.508
2014-03-29 00:12:00,4638E-2,5C000491,-0725,1371,6736,012.2,044.9,0.188,755.8,01.16,0.508
2014-03-29 00:13:00,4670E-2,5C000491,-0725,1371,6631,012.2,044.9,0.188,755.8,01.16,0.508
2014-03-29 00:14:00,4575E-2,5C000491,-0725,1372,6732,012.2,044.9,0.188,755.7,01.16,0.508
2014-03-29 00:15:00,4615E-2,5C000491,-0725,1372,6460,012.2,044.9,0.188,755.7,01.16,0.508
2014-03-29 00:16:00,4630E-2,5C000491,-0725,1373,6539,012.2,044.9,0.188,755.7,01.16,0.508
2014-03-29 00:17:00,4636E-2,5C000491,-0725,1373,6443,012.2,044.9,0.188,755.8,01.16,0.508
2014-03-29 00:18:00,4654E-2,5C000491,-0725,1373,6481,012.2,044.9,0.188,755.8,01.16,0.508
2014-03-29 00:19:00,4654E-2,5C000491,-0725,1373,6456,012.2,044.9,0.188,755.8,01.16,0.508
2014-03-29 00:20:00,4698E-2,5C000491,-0725,1373,6416,012.2,044.9,0.188,755.7,01.16,0.508
2014-03-29 00:21:00,4646E-2,5C000491,-0725,1373,6416,012.2,044.9,0.188,755.7,01.16,0.508
2014-03-29 00:22:00,4662E-2,5C000491,-0725,1373,6315,012.2,044.9,0.188,755.7,01.16,0.508
2014-03-29 00:23:00,4669E-2,5C000491,-0725,1373,6271,012.2,044.9,0.188,755.8,01.16,0.508
2014-03-29 00:24:00,4643E-2,5C000491,-0725,1373,6305,012.2,044.9,0.188,755.8,01.16,0.508
2014-03-29 00:25:00,4636E-2,5C000491,-0725,1373,6165,012.2,044.9,0.188,755.8,01.16,0.508
2014-03-29 00:26:00,4689E-2,5C000491,-0725,1373,6256,012.2,044.9,0.188,755.7,01.16,0.508
2014-03-29 00:27:00,4697E-2,5C000491,-0725,1373,6267,012.2,044.9,0.188,755.7,01.16,0.508
2014-03-29 00:28:00,4654E-2,5C000491,-0725,1373,6194,012.2,044.9,0.188,755.8,01.16,0.508
2014-03-29 00:29:00,4640E-2,5C000491,-0725,1373,6234,012.2,044.9,0.188,755.7,01.16,0.508
2014-03-29 00:30:00,4742E-2,5C000491,-0725,1373,6255,012.2,044.9,0.188,755.6,01.16,0.508
2014-03-29 00:31:00,4708E-2,5C000491,-0725,1373,6217,012.2,044.9,0.188,755.7,01.16,0.508
2014-03-29 00:32:00,4712E-2,5C000491,-0725,1373,6227,012.2,044.9,0.188,755.7,01.16,0.508
2014-03-29 00:33:00,4674E-2,5C000491,-0725,1373,6132,012.2,044.9,0.188,755.7,01.16,0.508
2014-03-29 00:34:00,4755E-2,5C000491,-0725,1373,6355,012.2,044.9,0.188,755.7,01.16,0.508
2014-03-29 00:35:00,4723E-2,5C000491,-0725,1373,6396,012.2,044.9,0.188,755.7,01.16,0.508
2014-03-29 00:36:00,4654E-2,5C000491,-0725,1373,6326,012.2,044.9,0.188,755.7,01.16,0.508
2014-03-29 00:37:00,4677E-2,5C000491,-0725,1373,6248,012.2,044.9,0.188,755.7,01.16,0.508
2014-03-29 00:38:00,4709E-2,5C000491,-0725,1373,6292,012.2,044.9,0.188,755.8,01.16,0.508
2014-03-29 00:39:00,4654E-2,5C000491,-0725,1373,6250,012.2,044.9,0.188,755.8,01.16,0.508
2014-03-29 00:40:00,4697E-2,5C000491,-0725,1373,6199,012.2,044.9,0.188,755.8,01.16,0.508
2014-03-29 00:41:00,4709E-2,5C000491,-0725,1373,6219,012.2,044.9,0.188,755.8,01.16,0.508
2014-03-29 00:42:00,4706E-2,5C000491,-0725,1373,6231,012.2,044.9,0.188,755.8,01.16,0.508
2014-03-29 00:43:00,4702E-2,5C000491,-0725,1373,6174,012.2,044.9,0.188,755.7,01.16,0.508
2014-03-29 00:44:00,4723E-2,5C000491,-0725,1373,6090,012.3,044.9,0.188,755.7,01.16,0.508
2014-03-29 00:45:00,4785E-2,5C000491,-0725,1373,6059,012.2,044.9,0.188,755.7,01.16,0.508
2014-03-29 00:46:00,4718E-2,5C000491,-0725,1373,6151,012.3,044.9,0.188,755.7,01.16,0.508
2014-03-29 00:47:00,4730E-2,5C000491,-0725,1373,6054,012.3,044.9,0.188,755.8,01.16,0.508
2014-03-29 00:48:00,4679E-2,5C000491,-0725,1373,6042,012.3,044.9,0.188,755.7,01.16,0.508
2014-03-29 00:49:00,4727E-2,5C000491,-0725,1373,6148,012.3,044.9,0.188,755.8,01.16,0.508
2014-03-29 00:50:00,4676E-2,5C000491,-0725,1373,6111,012.3,044.9,0.188,755.7,01.16,0.508
2014-03-29 00:51:00,4731E-2,5C000491,-0725,1373,6105,012.3,044.9,0.188,755.7,01.16,0.508
2014-03-29 00:52:00,4619E-2,5C000491,-0725,1373,6124,012.3,044.9,0.188,755.7,01.16,0.508
2014-03-29 00:53:00,4731E-2,5C000491,-0725,1373,6043,012.3,044.9,0.188,755.8,01.16,0.508
2014-03-29 00:54:00,4685E-2,5C000491,-0725,1373,6177,012.3,044.9,0.188,755.7,01.16,0.508
2014-03-29 00:55:00,4653E-2,5C000491,-0725,1373,6027,012.3,044.9,0.188,755.8,01.16,0.508
2014-03-29 00:56:00,4664E-2,5C000491,-0725,1373,6070,012.3,044.9,0.188,755.8,01.16,0.508
2014-03-29 00:57:00,4660E-2,5C000491,-0725,1373,6086,012.3,044.9,0.188,755.7,01.16,0.508
2014-03-29 00:58:00,4707E-2,5C000491,-0725,1373,6055,012.4,044.9,0.188,755.7,01.16,0.508
2014-03-29 00:59:00,4707E-2,5C000491,-0725,1373,5965,012.4,044.9,0.188,755.7,01.16,0.508
2014-03-29 01:00:00,4647E-2,5C000491,-0725,1373,6018,012.4,044.9,0.188,755.6,01.16,0.508
2014-03-29 01:01:00,4728E-2,5C000491,-0725,1373,5929,012.4,044.9,0.188,755.7,01.16,0.508
2014-03-29 01:02:00,4677E-2,5C000491,-0725,1373,6025,012.4,044.9,0.188,755.8,01.16,0.508
2014-03-29 01:03:00,4620E-2,5C000491,-0725,1373,6044,012.4,044.9,0.188,755.7,01.16,0.508
2014-03-29 01:04:00,4659E-2,5C000491,-0725,1373,5957,012.4,044.9,0.188,755.7,01.16,0.508
2014-03-29 01:05:00,4704E-2,5C000491,-0725,1373,6049,012.4,044.9,0.188,755.6,01.16,0.508
2014-03-29 01:06:00,4686E-2,5C000491,-0725,1373,6055,012.4,044.9,0.188,755.6,01.16,0.508
2014-03-29 01:07:00,4693E-2,5C000491,-0725,1373,6030,012.4,044.9,0.188,755.7,01.16,0.508
2014-03-29 01:08:00,4706E-2,5C000491,-0725,1373,6025,012.4,044.9,0.188,755.6,01.16,0.508
2014-03-29 01:09:00,4684E-2,5C000491,-0725,1373,5957,012.5,044.9,0.188,755.7,01.16,0.508
2014-03-29 01:10:00,4677E-2,5C000491,-0725,1373,6031,012.5,044.9,0.188,755.6,01.16,0.508
2014-03-29 01:11:00,4648E-2,5C000491,-0725,1373,6077,012.5,044.9,0.188,755.7,01.16,0.508
2014-03-29 01:12:00,4640E-2,5C000491,-0725,1373,6035,012.5,044.9,0.187,755.6,01.16,0.508
2014-03-29 01:13:00,4684E-2,5C000491,-0725,1373,6044,012.5,044.9,0.187,755.7,01.16,0.508
2014-03-29 01:14:00,4637E-2,5C000491,-0725,1373,6029,012.5,044.9,0.187,755.7,01.16,0.508
2014-03-29 01:15:00,4648E-2,5C000491,-0725,1373,5892,012.5,044.9,0.187,755.6,01.16,0.508
2014-03-29 01:16:00,4711E-2,5C000491,-0725,1373,5938,012.5,044.9,0.187,755.6,01.16,0.508
2014-03-29 01:17:00,4723E-2,5C000491,-0725,1373,6506,012.5,044.9,0.187,755.7,01.16,0.508
2014-03-29 01:18:00,4719E-2,5C000491,-0725,1373,6587,012.6,044.9,0.187,755.6,01.16,0.508
2014-03-29 01:19:00,4702E-2,5C000491,-0725,1373,6541,012.6,044.9,0.187,755.8,01.16,0.508
2014-03-29 01:20:00,4697E-2,5C000491,-0725,1373,6502,012.6,044.9,0.187,755.7,01.16,0.508
2014-03-29 01:21:00,4723E-2,5C000491,-0725,1373,6394,012.6,044.9,0.187,755.6,01.16,0.508
2014-03-29 01:22:00,4728E-2,5C000491,-0725,1373,6315,012.6,044.9,0.187,755.6,01.16,0.508
2014-03-29 01:23:00,4684E-2,5C000491,-0725,1373,6486,012.6,044.9,0.187,755.6,01.16,0.508
2014-03-29 01:24:00,4657E-2,5C000491,-0725,1373,6359,012.6,044.9,0.187,755.7,01.16,0.508
2014-03-29 01:25:00,4642E-2,5C000491,-0725,1373,6366,012.6,044.9,0.187,755.7,01.16,0.508
2014-03-29 01:26:00,4713E-2,5C000491,-0725,1373,6428,012.7,044.9,0.187,755.6,01.16,0.508
2014-03-29 01:27:00,4707E-2,5C000491,-0725,1373,6353,012.7,044.9,0.187,755.6,01.16,0.508
2014-03-29 01:28:00,4673E-2,5C000491,-0725,1373,6199,012.7,044.9,0.187,755.7,01.16,0.508
2014-03-29 01:29:00,4713E-2,5C000491,-0725,1373,6331,012.7,044.9,0.187,755.7,01.16,0.508
2014-03-29 01:30:00,4727E-2,5C000491,-0725,1373,6300,012.7,044.9,0.187,755.6,01.16,0.508
2014-03-29 01:31:00,4686E-2,5C000491,-0725,1373,6227,012.7,044.9,0.187,755.6,01.16,0.508
2014-03-29 01:32:00,4693E-2,5C000491,-0725,1373,6274,012.7,044.9,0.187,755.6,01.16,0.508
2014-03-29 01:33:00,4642E-2,5C000491,-0725,1373,6299,012.7,044.9,0.187,755.6,01.16,0.508
2014-03-29 01:34:00,4705E-2,5C000491,-0725,1373,6346,012.7,044.9,0.187,755.6,01.16,0.508
2014-03-29 01:35:00,4685E-2,5C000491,-0725,1373,6280,012.8,044.9,0.187,755.6,01.16,0.508
2014-03-29 01:36:00,4736E-2,5C000491,-0725,1373,6189,012.8,044.9,0.187,755.6,01.16,0.508
2014-03-29 01:37:00,4701E-2,5C000491,-0725,1373,6189,012.8,044.9,0.187,755.6,01.16,0.508
2014-03-29 01:38:00,4694E-2,5C000491,-0725,1373,6228,012.8,044.9,0.187,755.6,01.16,0.508
2014-03-29 01:39:00,4720E-2,5C000491,-0725,1373,6294,012.8,044.9,0.187,755.7,01.16,0.508
2014-03-29 01:40:00,4704E-2,5C000491,-0725,1373,6220,012.8,044.9,0.187,755.7,01.16,0.508
2014-03-29 01:41:00,4655E-2,5C000491,-0725,1373,6179,012.8,044.9,0.187,755.6,01.16,0.508
2014-03-29 01:42:00,4677E-2,5C000491,-0725,1373,6147,012.8,044.9,0.187,755.5,01.16,0.508
2014-03-29 01:43:00,4657E-2,5C000491,-0725,1373,6206,012.8,044.9,0.187,755.6,01.16,0.508
2014-03-29 01:44:00,4688E-2,5C000491,-0725,1373,6107,012.9,044.9,0.187,755.7,01.16,0.508
2014-03-29 01:45:00,4636E-2,5C000491,-0725,1373,6071,012.9,044.9,0.187,755.6,01.16,0.508
2014-03-29 01:46:00,4723E-2,5C000491,-0725,1373,6078,012.9,044.9,0.187,755.5,01.16,0.508
2014-03-29 01:47:00,4678E-2,5C000491,-0725,1373,6047,012.9,044.9,0.187,755.5,01.16,0.508
2014-03-29 01:48:00,4712E-2,5C000491,-0725,1373,6100,012.9,044.9,0.186,755.7,01.16,0.508
2014-03-29 01:49:00,4729E-2,5C000491,-0725,1373,6122,012.9,044.9,0.186,755.6,01.16,0.508
2014-03-29 01:50:00,4755E-2,5C000491,-0725,1373,6058,012.9,044.9,0.186,755.6,01.16,0.508
2014-03-29 01:51:00,4733E-2,5C000491,-0725,1373,6058,012.9,044.9,0.186,755.5,01.16,0.508
2014-03-29 01:52:00,4720E-2,5C000491,-0725,1373,6087,012.9,044.9,0.186,755.6,01.16,0.508
2014-03-29 01:53:00,4696E-2,5C000491,-0725,1373,5979,013.0,044.9,0.186,755.6,01.16,0.508
2014-03-29 01:54:00,4714E-2,5C000491,-0725,1373,5831,013.0,044.9,0.186,755.6,01.16,0.508
2014-03-29 01:55:00,4707E-2,5C000491,-0725,1373,5959,013.0,044.9,0.186,755.5,01.16,0.508
2014-03-29 01:56:00,4731E-2,5C000491,-0725,1373,5969,013.0,044.9,0.186,755.6,01.16,0.508
2014-03-29 01:57:00,4666E-2,5C000491,-0725,1373,5977,013.0,044.9,0.186,755.6,01.16,0.508
2014-03-29 01:58:00,4655E-2,5C000491,-0725,1373,5952,013.0,044.9,0.186,755.5,01.16,0.508
2014-03-29 01:59:00,4751E-2,5C000491,-0725,1373,5917,013.0,044.9,0.186,755.5,01.16,0.508
2014-03-29 02:00:00,4743E-2,5C000491,-0725,1373,5937,013.0,044.9,0.186,755.4,01.16,0.508
2014-03-29 02:01:00,4719E-2,5C000491,-0725,1373,5825,013.1,044.9,0.186,755.6,01.16,0.508
2014-03-29 02:02:00,4727E-2,5C000491,-0725,1373,5889,013.1,044.9,0.186,755.7,01.16,0.508
2014-03-29 02:03:00,4693E-2,5C000491,-0725,1373,5894,013.1,044.9,0.186,755.6,01.16,0.508
2014-03-29 02:04:00,4743E-2,5C000491,-0725,1373,5808,013.1,044.9,0.186,755.5,01.16,0.508
2014-03-29 02:05:00,4717E-2,5C000491,-0725,1373,5781,013.1,044.9,0.186,755.5,01.16,0.508
2014-03-29 02:06:00,4720E-2,5C000491,-0725,1373,5950,013.1,044.9,0.186,755.6,01.16,0.508
2014-03-29 02:07:00,4685E-2,5C000491,-0725,1373,6139,013.1,044.9,0.186,755.6,01.16,0.508
2014-03-29 02:08:00,4670E-2,5C000491,-0725,1373,6093,013.1,044.9,0.186,755.5,01.16,0.508
2014-03-29 02:09:00,4726E-2,5C000491,-0725,1373,6035,013.1,044.9,0.186,755.6,01.16,0.508
2014-03-29 02:10:00,4687E-2,5C000491,-0725,1373,5987,013.1,044.9,0.186,755.7,01.16,0.508
2014-03-29 02:11:00,4741E-2,5C000491,-0725,1373,5958,013.2,044.9,0.186,755.6,01.16,0.508
2014-03-29 02:12:00,4796E-2,5C000491,-0725,1373,5980,013.2,044.9,0.186,755.5,01.16,0.508
2014-03-29 02:13:00,4737E-2,5C000491,-0725,1373,6031,013.2,044.9,0.186,755.6,01.16,0.508
2014-03-29 02:14:00,4748E-2,5C000491,-0725,1373,6028,013.2,044.9,0.186,755.7,01.16,0.508
2014-03-29 02:15:00,4680E-2,5C000491,-0725,1373,6033,013.2,044.9,0.186,755.7,01.16,0.508
2014-03-29 02:16:00,4718E-2,5C000491,-0725,1373,6034,013.2,044.9,0.186,755.6,01.16,0.508
2014-03-29 02:17:00,4749E-2,5C000491,-0725,1373,5939,013.2,044.9,0.186,755.5,01.16,0.508
2014-03-29 02:18:00,4708E-2,5C000491,-0725,1373,6015,013.2,044.9,0.186,755.6,01.16,0.508
2014-03-29 02:19:00,4662E-2,5C000491,-0725,1373,5925,013.2,044.9,0.186,755.7,01.16,0.508
2014-03-29 02:20:00,4653E-2,5C000491,-0725,1373,5978,013.3,044.9,0.186,755.7,01.16,0.508
2014-03-29 02:21:00,4709E-2,5C000491,-0725,1373,5936,013.3,044.9,0.186,755.6,01.16,0.508
2014-03-29 02:22:00,4716E-2,5C000491,-0725,1373,5799,013.3,044.9,0.186,755.6,01.16,0.508
2014-03-29 02:23:00,4713E-2,5C000491,-0725,1373,5888,013.3,044.9,0.186,755.6,01.16,0.508
2014-03-29 02:24:00,4624E-2,5C000491,-0725,1373,5966,013.3,044.9,0.185,755.8,01.16,0.508
2014-03-29 02:25:00,4694E-2,5C000491,-0725,1373,5861,013.3,044.9,0.185,755.7,01.16,0.508
2014-03-29 02:26:00,4761E-2,5C000491,-0725,1373,5829,013.3,044.9,0.185,755.7,01.16,0.508
2014-03-29 02:27:00,4650E-2,5C000491,-0725,1373,5868,013.3,044.9,0.185,755.7,01.16,0.508
2014-03-29 02:28:00,4706E-2,5C000491,-0725,1373,5800,013.4,044.9,0.185,755.7,01.16,0.508
2014-03-29 02:29:00,4707E-2,5C000491,-0725,1373,5695,013.4,044.9,0.185,755.6,01.16,0.508
2014-03-29 02:30:00,4690E-2,5C000491,-0725,1373,5826,013.4,044.9,0.185,755.6,01.16,0.508
2014-03-29 02:31:00,4678E-2,5C000491,-0725,1373,5847,013.4,044.9,0.185,755.6,01.16,0.508
2014-03-29 02:32:00,4697E-2,5C000491,-0725,1373,5697,013.4,044.9,0.185,755.8,01.16,0.508
2014-03-29 02:33:00,4713E-2,5C000491,-0725,1373,5803,013.4,044.9,0.185,755.8,01.16,0.508
2014-03-29 02:34:00,4705E-2,5C000491,-0725,1373,5642,013.4,045.0,0.185,755.8,01.16,0.508
2014-03-29 02:35:00,4745E-2,5C000491,-0725,1373,5588,013.4,044.9,0.185,755.7,01.16,0.508
2014-03-29 02:36:00,4692E-2,5C000491,-0725,1373,5618,013.4,044.9,0.185,755.6,01.16,0.508
2014-03-29 02:37:00,4735E-2,5C000491,-0725,1373,5612,013.5,044.9,0.185,755.7,01.16,0.508
2014-03-29 02:38:00,4736E-2,5C000491,-0725,1373,5550,013.5,044.9,0.185,755.7,01.16,0.508
2014-03-29 02:39:00,4703E-2,5C000491,-0725,1373,5601,013.5,044.9,0.185,755.7,01.16,0.508
2014-03-29 02:40:00,4721E-2,5C000491,-0725,1373,5515,013.5,044.9,0.185,755.8,01.16,0.508
2014-03-29 02:41:00,4675E-2,5C000491,-0725,1373,5522,013.5,044.9,0.185,755.7,01.16,0.508
2014-03-29 02:42:00,4700E-2,5C000491,-0725,1373,5548,013.5,044.9,0.185,755.6,01.16,0.508
2014-03-29 02:43:00,4713E-2,5C000491,-0725,1373,5447,013.5,044.9,0.185,755.7,01.16,0.508
2014-03-29 02:44:00,4703E-2,5C000491,-0725,1373,5367,013.5,044.9,0.185,755.8,01.16,0.508
2014-03-29 02:45:00,4742E-2,5C000491,-0725,1373,5477,013.5,044.9,0.185,755.8,01.16,0.508
2014-03-29 02:46:00,4703E-2,5C000491,-0725,1373,5497,013.6,044.9,0.185,755.7,01.16,0.508
2014-03-29 02:47:00,4744E-2,5C000491,-0725,1373,5499,013.6,044.9,0.185,755.7,01.16,0.508
2014-03-29 02:48:00,4770E-2,5C000491,-0725,1373,5384,013.6,044.9,0.185,755.8,01.16,0.508
2014-03-29 02:49:00,4760E-2,5C000491,-0725,1373,5557,013.6,044.9,0.185,755.9,01.16,0.508
2014-03-29 02:50:00,4754E-2,5C000491,-0725,1373,5486,013.6,044.9,0.185,755.7,01.16,0.508
2014-03-29 02:51:00,4761E-2,5C000491,-0725,1373,5489,013.6,044.9,0.185,755.7,01.16,0.508
2014-03-29 02:52:00,4766E-2,5C000491,-0725,1373,5496,013.6,044.9,0.185,755.7,01.16,0.508
2014-03-29 02:53:00,4696E-2,5C000491,-0725,1373,5430,013.6,044.9,0.185,755.7,01.16,0.508
2014-03-29 02:54:00,4736E-2,5C000491,-0725,1373,5443,013.6,044.9,0.185,755.7,01.16,0.508
2014-03-29 02:55:00,4689E-2,5C000491,-0725,1373,5437,013.7,044.9,0.185,755.8,01.16,0.508
2014-03-29 02:56:00,4679E-2,5C000491,-0725,1373,5409,013.7,044.9,0.185,755.7,01.16,0.508
2014-03-29 02:57:00,4710E-2,5C000491,-0725,1373,5550,013.7,044.9,0.185,755.6,01.16,0.508
2014-03-29 02:58:00,4712E-2,5C000491,-0725,1373,5401,013.7,044.9,0.185,755.7,01.16,0.508
2014-03-29 02:59:00,4759E-2,5C000491,-0725,1373,5477,013.7,044.9,0.185,755.8,01.16,0.508
2014-03-29 03:00:00,4804E-2,5C000491,-0725,1373,5450,013.7,044.9,0.185,755.8,01.16,0.508
2014-03-29 03:01:00,4691E-2,5C000491,-0725,1373,5378,013.7,044.9,0.185,755.7,01.16,0.508
2014-03-29 03:02:00,4677E-2,5C000491,-0725,1373,5316,013.8,044.9,0.185,755.7,01.16,0.508
2014-03-29 03:03:00,4647E-2,5C000491,-0725,1373,5339,013.7,044.9,0.185,755.7,01.16,0.508
2014-03-29 03:04:00,4703E-2,5C000491,-0725,1373,5284,013.8,044.9,0.185,755.6,01.16,0.508
2014-03-29 03:05:00,4636E-2,5C000491,-0725,1373,5325,013.8,044.9,0.184,755.7,01.16,0.508
2014-03-29 03:06:00,4688E-2,5C000491,-0725,1373,5331,013.8,044.9,0.184,755.7,01.16,0.508
2014-03-29 03:07:00,4686E-2,5C000491,-0725,1373,5298,013.8,044.9,0.184,755.6,01.16,0.508
2014-03-29 03:08:00,4707E-2,5C000491,-0725,1373,5188,013.8,044.9,0.184,755.6,01.16,0.508
2014-03-29 03:09:00,4639E-2,5C000491,-0725,1373,5173,013.8,044.9,0.184,755.6,01.16,0.508
2014-03-29 03:10:00,4646E-2,5C000491,-0725,1373,5146,013.8,045.0,0.184,755.6,01.16,0.508
2014-03-29 03:11:00,4662E-2,5C000491,-0725,1373,5168,013.8,044.9,0.184,755.6,01.16,0.508
2014-03-29 03:12:00,4603E-2,5C000491,-0725,1373,5129,013.8,044.9,0.184,755.6,01.16,0.508
2014-03-29 03:13:00,4683E-2,5C000491,-0725,1373,5184,013.8,044.9,0.184,755.6,01.16,0.508
2014-03-29 03:14:00,4696E-2,5C000491,-0725,1373,5215,013.8,044.9,0.184,755.6,01.16,0.508
2014-03-29 03:15:00,4693E-2,5C000491,-0725,1373,5153,013.9,044.9,0.184,755.7,01.16,0.508
2014-03-29 03:16:00,4692E-2,5C000491,-0725,1373,5173,013.9,044.9,0.184,755.6,01.16,0.508
2014-03-29 03:17:00,4645E-2,5C000491,-0725,1373,5172,013.9,044.9,0.184,755.5,01.16,0.508
2014-03-29 03:18:00,4624E-2,5C000491,-0725,1373,5174,013.9,044.9,0.184,755.6,01.16,0.508
2014-03-29 03:19:00,4702E-2,5C000491,-0725,1373,5156,013.9,044.9,0.184,755.6,01.16,0.508
2014-03-29 03:20:00,4652E-2,5C000491,-0725,1373,5069,013.9,044.9,0.184,755.6,01.16,0.508
2014-03-29 03:21:00,4625E-2,5C000491,-0725,1373,5073,013.9,044.9,0.184,755.7,01.16,0.508
2014-03-29 03:22:00,4649E-2,5C000491,-0725,1373,5175,013.9,044.9,0.184,755.8,01.16,0.508
2014-03-29 03:23:00,4669E-2,5C000491,-0725,1373,5039,013.9,044.9,0.184,755.9,01.16,0.508
2014-03-29 03:24:00,4588E-2,5C000491,-0725,1373,5130,013.9,045.0,0.184,755.9,01.16,0.508
2014-03-29 03:25:00,4665E-2,5C000491,-0725,1373,5078,014.0,045.0,0.184,755.8,01.16,0.508
2014-03-29 03:26:00,4581E-2,5C000491,-0725,1373,5083,014.0,044.9,0.184,755.8,01.16,0.508
2014-03-29 03:27:00,4614E-2,5C000491,-0725,1373,5107,014.0,044.9,0.184,756.0,01.16,0.508
2014-03-29 03:28:00,4626E-2,5C000491,-0725,1373,5089,014.0,044.9,0.184,755.9,01.16,0.508
2014-03-29 03:29:00,4640E-2,5C000491,-0725,1373,5101,014.0,044.9,0.184,755.8,01.16,0.508
2014-03-29 03:30:00,4636E-2,5C000491,-0725,1373,5106,014.0,044.9,0.184,755.8,01.16,0.508
2014-03-29 03:31:00,4625E-2,5C000491,-0725,1373,4969,014.1,044.9,0.184,755.9,01.16,0.508
2014-03-29 03:32:00,4628E-2,5C000491,-0725,1373,5067,014.1,044.9,0.184,755.8,01.16,0.508
2014-03-29 03:33:00,4642E-2,5C000491,-0725,1373,5044,014.1,044.9,0.184,755.9,01.16,0.508
2014-03-29 03:34:00,4635E-2,5C000491,-0725,1373,4998,014.1,044.9,0.184,755.9,01.16,0.508
2014-03-29 03:35:00,4642E-2,5C000491,-0725,1373,4971,014.1,044.9,0.184,755.8,01.16,0.508
2014-03-29 03:36:00,4607E-2,5C000491,-0725,1373,5033,014.1,044.9,0.184,755.8,01.16,0.508
2014-03-29 03:37:00,4652E-2,5C000491,-0725,1373,5114,014.1,044.9,0.184,755.9,01.16,0.508
2014-03-29 03:38:00,4648E-2,5C000491,-0725,1373,5061,014.1,044.9,0.184,755.9,01.16,0.508
2014-03-29 03:39:00,4626E-2,5C000491,-0725,1373,5104,014.1,044.9,0.184,755.9,01.16,0.508
2014-03-29 03:40:00,4621E-2,5C000491,-0725,1373,5115,014.1,044.9,0.183,755.9,01.16,0.508
2014-03-29 03:41:00,4605E-2,5C000491,-0725,1373,5089,014.1,044.9,0.184,755.9,01.16,0.508
2014-03-29 03:42:00,4673E-2,5C000491,-0725,1373,5045,014.2,045.0,0.183,755.9,01.16,0.508
2014-03-29 03:43:00,4638E-2,5C000491,-0725,1373,5061,014.2,044.9,0.184,755.8,01.16,0.508
2014-03-29 03:44:00,4667E-2,5C000491,-0725,1373,4982,014.2,044.9,0.183,755.8,01.16,0.508
2014-03-29 03:45:00,4712E-2,5C000491,-0725,1373,4971,014.2,044.9,0.183,755.8,01.16,0.508
2014-03-29 03:46:00,4691E-2,5C000491,-0725,1373,4965,014.2,044.9,0.183,755.9,01.16,0.508
2014-03-29 03:47:00,4387E-2,5C000491,-0725,1373,4984,014.2,044.9,0.183,755.8,01.16,0.508
2014-03-29 03:48:00,4378E-2,5C000491,-0725,1373,5046,014.2,044.9,0.183,755.8,01.16,0.508
2014-03-29 03:49:00,4405E-2,5C000491,-0725,1373,4956,014.2,044.9,0.183,755.8,01.16,0.508
2014-03-29 03:50:00,4419E-2,5C000491,-0725,1373,5009,014.2,044.9,0.183,755.9,01.16,0.508
2014-03-29 03:51:00,4363E-2,5C000491,-0725,1373,4990,014.2,044.9,0.183,756.0,01.16,0.508
2014-03-29 03:52:00,4420E-2,5C000491,-0725,1373,4980,014.3,045.0,0.183,755.9,01.16,0.508
2014-03-29 03:53:00,4365E-2,5C000491,-0725,1373,5047,014.3,044.9,0.183,755.9,01.16,0.508
2014-03-29 03:54:00,4402E-2,5C000491,-0725,1373,5023,014.3,044.9,0.183,755.9,01.16,0.508
2014-03-29 03:55:00,4376E-2,5C000491,-0725,1373,5009,014.3,044.9,0.183,755.9,01.16,0.508
2014-03-29 03:56:00,4371E-2,5C000491,-0725,1373,4971,014.3,045.0,0.183,756.0,01.16,0.508
2014-03-29 03:57:00,4341E-2,5C000491,-0725,1373,5049,014.3,045.0,0.183,755.9,01.16,0.508
2014-03-29 03:58:00,4413E-2,5C000491,-0725,1373,5010,014.3,045.0,0.183,755.8,01.16,0.508
2014-03-29 03:59:00,4371E-2,5C000491,-0725,1373,4968,014.3,044.9,0.183,755.7,01.16,0.508
2014-03-29 04:00:00,4351E-2,5C000491,-0725,1373,4974,014.3,044.9,0.183,755.8,01.16,0.508
2014-03-29 04:01:00,4355E-2,5C000491,-0725,1373,4954,014.3,044.9,0.183,755.9,01.16,0.508
2014-03-29 04:02:00,4349E-2,5C000491,-0725,1373,4937,014.3,045.0,0.183,755.9,01.16,0.508
2014-03-29 04:03:00,4367E-2,5C000491,-0725,1373,4886,014.4,044.9,0.183,755.8,01.16,0.508
2014-03-29 04:04:00,4372E-2,5C000491,-0725,1373,4938,014.4,044.9,0.183,755.9,01.16,0.508
2014-03-29 04:05:00,4363E-2,5C000491,-0725,1373,4915,014.4,045.0,0.183,755.9,01.16,0.508
2014-03-29 04:06:00,4378E-2,5C000491,-0725,1373,4804,014.4,045.0,0.183,755.8,01.16,0.508
2014-03-29 04:07:00,4414E-2,5C000491,-0725,1373,4904,014.4,045.0,0.183,755.7,01.16,0.508
2014-03-29 04:08:00,4329E-2,5C000491,-0725,1374,4882,014.4,045.0,0.183,755.7,01.16,0.508
2014-03-29 04:09:00,4338E-2,5C000491,-0725,1373,4893,014.4,044.9,0.183,755.9,01.16,0.508
2014-03-29 04:10:00,4313E-2,5C000491,-0725,1374,4912,014.4,044.9,0.183,755.8,01.16,0.508
2014-03-29 04:11:00,4374E-2,5C000491,-0725,1373,4794,014.4,045.0,0.183,755.8,01.16,0.508
2014-03-29 04:12:00,4359E-2,5C000491,-0725,1373,4877,014.5,045.0,0.183,755.8,01.16,0.508
2014-03-29 04:13:00,4330E-2,5C000491,-0725,1373,4841,014.5,045.0,0.183,755.8,01.16,0.508
2014-03-29 04:14:00,4315E-2,5C000491,-0725,1373,4814,014.5,044.9,0.183,755.8,01.16,0.508
2014-03-29 04:15:00,4404E-2,5C000491,-0725,1374,5268,014.5,044.9,0.183,755.8,01.16,0.508
2014-03-29 04:16:00,4467E-2,5C000491,-0725,1374,5256,014.5,044.9,0.183,755.8,01.16,0.508
2014-03-29 04:17:00,4505E-2,5C000491,-0725,1374,5256,014.5,045.0,0.183,755.9,01.16,0.508
2014-03-29 04:18:00,4633E-2,5C000491,-0725,1374,5185,014.5,044.9,0.183,755.7,01.16,0.508
2014-03-29 04:19:00,4604E-2,5C000491,-0725,1374,5212,014.5,044.9,0.183,755.8,01.16,0.508
2014-03-29 04:20:00,4573E-2,5C000491,-0725,1374,5149,014.5,044.9,0.183,755.9,01.16,0.508
2014-03-29 04:21:00,4573E-2,5C000491,-0725,1374,5132,014.5,045.0,0.183,755.9,01.16,0.508
2014-03-29 04:22:00,4491E-2,5C000491,-0725,1374,5149,014.6,045.0,0.182,755.8,01.16,0.508
2014-03-29 04:23:00,4558E-2,5C000491,-0725,1374,5097,014.6,044.9,0.182,755.9,01.16,0.508